Flag for Uzbekistan Weather past 2 weeks in Samarkand, Uzbekistan

Now
36 °F

Clear.


Feels Like: 27 °F
Forecast: 33 / 52 °F
Wind: 14 mph from Southeast

Location: Samarkand

Current Time: Mar 1, 2015 at 8:03:20 AM

Latest Report: Mar 1, 2015 at 7:30 AM


Visibility: N/A

Pressure: 30.09 "Hg

Humidity: 81%

Dew point: 30 °F

Location of SamarkandLocation

Historic Weather in Samarkand — Graph

°F

Samarkand temperature yesterday

Maximum temperature yesterday: 45 °F (at 1:30 PM)
Minimum temperature yesterday: 34 °F (at 7:00 AM)
Average temperature yesterday: 39 °F

Past Weeks' High & Low Weather Summary

 TemperatureHumidityPressure
High59 °F (Feb 20, 1:30 PM)100% (Feb 19, 5:30 AM)30.39 "Hg (Feb 19, 5:30 AM)
Low27 °F (Feb 26, 4:30 AM)34% (Feb 20, 1:30 PM)29.74 "Hg (Feb 21, 4:00 PM)
Average40 °F82%30.10 "Hg
* Reported Feb 14 7:00 AM — Mar 1 7:00 AM, Samarkand, Weather by CustomWeather, © 2015

Note: Actual official high and low records may vary slightly from our data, if they occured in-between our weather recording intervals... More about our weather records

Advertising

Samarkand weather history for previous 24 hours

 ConditionsComfort  
Time TempWeatherWind HumidityBarometerVisibility
7:00 AM
Sun, Mar 1
36 °FClear.12 mph81%30.09 "HgN/A
6:30 AM36 °FClear.10 mph81%30.09 "HgN/A
6:00 AM36 °FClear.12 mph81%30.09 "HgN/A
5:30 AM36 °FClear.12 mph81%30.09 "HgN/A
5:00 AM36 °FClear.10 mph81%30.09 "HgN/A
4:30 AM36 °FClear.10 mph81%30.12 "HgN/A
4:00 AM36 °FClear.10 mph81%30.12 "HgN/A
3:30 AM36 °FClear.9 mph81%30.12 "HgN/A
3:00 AM37 °FClear.8 mph75%30.15 "HgN/A
2:30 AM37 °FClear.12 mph75%30.15 "HgN/A
2:00 AM37 °FClear.14 mph75%30.15 "HgN/A
1:30 AM37 °FClear.15 mph81%30.18 "HgN/A
1:00 AM37 °FClear.16 mph75%30.18 "HgN/A
12:30 AM39 °FClear.16 mph75%30.18 "HgN/A
12:00 AM39 °FClear.17 mph75%30.18 "HgN/A
11:30 PM
Sat, Feb 28
39 °FClear.15 mph75%30.21 "HgN/A
11:00 PM39 °FClear.14 mph75%30.21 "HgN/A
10:30 PM39 °FClear.13 mph75%30.21 "HgN/A
10:00 PM39 °FClear.12 mph75%30.24 "HgN/A
9:30 PM39 °FClear.13 mph75%30.24 "HgN/A
9:00 PM39 °FClear.13 mph75%30.24 "HgN/A
8:30 PM39 °FClear.9 mph75%30.24 "HgN/A
8:00 PM39 °FClear.10 mph75%30.27 "HgN/A
7:30 PM39 °FClear.8 mph75%30.27 "HgN/A
7:00 PM39 °FClear.9 mph75%30.27 "HgN/A
6:30 PM39 °FClear.10 mph75%30.27 "HgN/A
6:00 PM41 °FPassing clouds.15 mph70%30.27 "HgN/A
5:30 PM41 °FPassing clouds.16 mph70%30.27 "HgN/A
5:00 PM43 °FPassing clouds.14 mph66%30.27 "HgN/A
4:30 PM43 °FPartly sunny.13 mph66%30.27 "HgN/A
4:00 PM45 °FScattered clouds.14 mph61%30.27 "HgN/A
3:30 PM45 °FClear.13 mph61%30.27 "HgN/A
3:00 PM45 °FClear.10 mph61%30.27 "HgN/A
2:30 PM45 °FPassing clouds.10 mph66%30.27 "HgN/A
2:00 PM45 °FScattered clouds.8 mph61%30.27 "HgN/A
1:30 PM45 °FScattered clouds.6 mph66%30.30 "HgN/A
1:00 PM43 °FPassing clouds.5 mph66%30.30 "HgN/A
12:30 PM43 °FClear.5 mph66%30.30 "HgN/A
12:00 PM43 °FClear.5 mph61%30.33 "HgN/A
11:30 AM43 °FClear.3 mph71%30.33 "HgN/A
11:00 AM41 °FClear.3 mph66%30.33 "HgN/A
10:30 AM39 °FClear.5 mph75%30.33 "HgN/A
10:00 AM39 °FClear.7 mph75%30.33 "HgN/A
9:30 AM37 °FClear.6 mph81%30.36 "HgN/A
9:00 AM36 °FClear.6 mph87%30.36 "HgN/A
8:30 AM36 °FClear.6 mph87%30.36 "HgN/A
8:00 AM34 °FClear.7 mph93%30.36 "HgN/A
Weather by CustomWeather, © 2015

See weather overviewHow to use our weather pages